Tracking 27401 objects as of 4-Jun-2023
HD Live streaming from Space Station
objects crossing your sky now

STARLINK-1205

Track STARLINK-1205 now!
10-day predictions
STARLINK-1205 is classified as:


NORAD ID: 45184
Int'l Code: 2020-012G
Perigee: 553.7 km
Apogee: 554.9 km
Inclination: 53.1 °
Period: 95.6 minutes
Semi major axis: 6925 km
RCS: Unknown
Launch date: February 17, 2020
Source: United States (US)
Launch site: AIR FORCE EASTERN TEST RANGE (AFETR)
Your satellite tracking list
Your tracking list is empty




NASA's NSSDC Master Catalog

Two Line Element Set (TLE):
1 45184U 20012G   23154.56592721  .00022177  00000-0  15026-2 0  9994
2 45184  53.0530 241.2380 0000845  71.7046 288.4035 15.06410501182196
Source of the keplerian elements: AFSPC